Location: Bishop�s Knoyle
(51.0728°N, 2.1714°W)
Time: 12:54:11
(UTC+00:00)

NOSS 3-4 (C) - Pass Details

Date: 22 January 2021
Orbit: 878 x 1335 km, 63.4° (Epoch: 16 February)

Event Time Altitude Azimuth Distance (km) Brightness Sun altitude
Rises 21:58:55 0° 312° (NW) 3,713 7.2 -47.9°
Reaches altitude 10° 22:01:30 10° 318° (NW) 2,821 6.4 -48.2°
Enters shadow 22:02:41 16° 321° (NW) 2,432 6.0 -48.4°
